Regional Weather Roundup
Issued by NWS

Home | Current Version | Previous Version | Text Only | Print | Product List | Glossary On
Versions: 1 2 3 4 5 6 7 8 9 10 11 12 13 14 15 16 17 18 19 20 21 22 23 24 25 26 27 28 29 30 31 32 33 34 35 36 37 38 39 40 41 42 43 44 45 46 47 48 49 50
000
ASUS43 KLMK 221102
RWRKY
KENTUCKY REGIONAL WEATHER ROUNDUP
NATIONAL WEATHER SERVICE LOUISVILLE KY
600 AM EST MON DEC 22 2014

NOTE "FAIR" INDICATES FEW OR NO CLOUDS BELOW 12,000 FEET
WITH NO SIGNIFICANT WEATHER AND/OR OBSTRUCTIONS TO VISIBILITY.

KYZ001>023-026-027-061>063-070>075-221200-
WESTERN AND SOUTH CENTRAL KENTUCKY

CITY           SKY/WX    TMP DP  RH WIND       PRES   REMARKS
PADUCAH        CLOUDY    42  36  79 SE8       29.86F
HENDERSON      CLOUDY    37  28  70 E6        29.92F WCI  33
OWENSBORO      CLOUDY    41  33  73 SE7       29.94F
HOPKINSVILLE   MOCLDY    43  41  92 SE5       29.92F
BOWLING GREEN  MOCLDY    35  30  82 NE3       29.96F
GLASGOW        NOT AVBL
$$

KYZ024-025-028>034-038-045-046-053-221200-
NORTH CENTRAL KENTUCKY

CITY           SKY/WX    TMP DP  RH WIND       PRES   REMARKS
LOUISVILLE/SDF CLOUDY    37  29  72 CALM      29.99F
LOUISVILLE/LOU CLOUDY    36  30  79 CALM      29.99F
FORT KNOX      CLOUDY    34  29  81 E5        29.96S WCI  30
$$

KYZ035>037-039>044-047>052-055>060-089>105-221200-
NORTHEAST KENTUCKY

CITY           SKY/WX    TMP DP  RH WIND       PRES   REMARKS
LEXINGTON      CLOUDY    38  29  70 SE10      30.00F WCI  31
COVINGTON      CLOUDY    34  25  69 SE7       30.01S WCI  28
FRANKFORT      PTCLDY    33  28  81 E3        29.99F
$$

KYZ054-064>069-076>088-106>120-221200-
SOUTHEAST KENTUCKY

CITY           SKY/WX    TMP DP  RH WIND       PRES   REMARKS
JACKSON        CLOUDY    41  32  70 SE5       30.01S
LONDON         MOCLDY    43  34  70 CALM      30.00F
SOMERSET       NOT AVBL
MIDDLESBORO    NOT AVBL
MONTICELLO     CLOUDY    46  38  74 CALM      30.03S
$$



USA.gov is the U.S. government's official web portal to all federal, state and local government web resources and services.